Weather History for Atlantic City, NJ

Change the Weather History Date:

Tuesday, June 11, 2013

  Actual Average Record
Temperature  
Mean Temperature 77 °F 70 °F  
Max Temperature 84 °F 79 °F 97 °F (1984)
Min Temperature 69 °F 60 °F 38 °F (1972)
Degree Days  
Heating Degree Days 0 1  
Month to date heating degree days 6 18  
Since 1 June heating degree days 6 18  
Since 1 July heating degree days 4836 4896  
Cooling Degree Days 12 6  
Month to date cooling degree days 57 51  
Year to date cooling degree days 151 115  
Since 1 June cooling degree days 57 51  
Growing Degree Days 26 (Base 50)    
Moisture  
Dew Point 65 °F    
Average Humidity 72    
Maximum Humidity 97    
Minimum Humidity 47    
Precipitation  
Precipitation 0.00 in 0.11 in 1.77 in (1955)
Month to date precipitation 4.07 1.21  
Year to date precipitation 21.63 18.49  
Snow  
Snow 0.00 in 0.00 in 0.00 in (1903)
Month to date snowfall 0.0 0.0  
Since 1 June snowfall 0.0 0.0  
Since 1 July snowfall 14.6 16.5  
Snow Depth 0.00 in    
Sea Level Pressure  
Sea Level Pressure 29.78 in    
Wind  
Wind Speed 11 mph (SW)    
Max Wind Speed 21 mph    
Max Gust Speed 30 mph    
Visibility 10 miles    
Events Rain    
T = Trace of Precipitation, MM = Missing Value Source: NWS Daily Summary

Daily Weather History Graph

Daily Weather History Graph

Search for Another Location

Airport:

Trip Planner

Search our weather history database for the weather conditions in past years. The results will help you decide how hot, cold, wet, or windy it might be!

Date:

Astronomy

Jun. 11, 2013 Rise Set
Actual Time 5:30 AM EDT 8:25 PM EDT
Civil Twilight 4:58 AM EDT 8:57 PM EDT
Nautical Twilight 4:17 AM EDT 9:38 PM EDT
Astronomical Twilight 3:30 AM EDT 10:25 PM EDT
Moon 8:10 AM EDT (6/11) 10:27 PM EDT (6/11)
Length of Visible Light 15h 59m
Length of Day
14h 54m
Waxing Crescent, 8% of the Moon is Illuminated
Jun 11
Waxing Crescent
Jun 16
First Quarter
Jun 23
Full
Jun 30
Last Quarter
Jul 8
New

Hourly Weather History & Observations

Time (EDT) Temp. Heat Index Dew Point Humidity Pressure Visibility Wind Dir Wind Speed Gust Speed Precip Events Conditions
12:20 AM 70.0 °F - 68.0 °F 93% 29.83 in 10.0 mi South 9.2 mph - 0.01 in Rain Light Rain
12:50 AM 69.8 °F - 68.0 °F 94% 29.81 in 10.0 mi South 9.2 mph - 0.03 in Rain Light Rain
12:54 AM 70.0 °F - 68.0 °F 93% 29.81 in 10.0 mi South 9.2 mph - 0.03 in   Overcast
1:31 AM 69.1 °F - 66.9 °F 93% 29.81 in 10.0 mi SSW 13.8 mph 23.0 mph N/A   Overcast
1:42 AM 69.1 °F - 66.9 °F 93% 29.81 in 10.0 mi SSW 12.7 mph - N/A   Overcast
1:50 AM 69.8 °F - 66.2 °F 88% 29.81 in 10.0 mi SSW 16.1 mph 24.2 mph N/A   Overcast
1:54 AM 70.0 °F - 66.9 °F 90% 29.81 in 10.0 mi SW 17.3 mph 24.2 mph N/A   Overcast
2:09 AM 70.0 °F - 66.9 °F 90% 29.81 in 10.0 mi SW 11.5 mph - N/A   Scattered Clouds
2:54 AM 70.0 °F - 66.9 °F 90% 29.81 in 10.0 mi SW 9.2 mph - N/A   Mostly Cloudy
3:03 AM 70.0 °F - 66.9 °F 90% 29.80 in 10.0 mi SW 8.1 mph - N/A   Mostly Cloudy
3:21 AM 70.0 °F - 68.0 °F 93% 29.80 in 10.0 mi SSW 8.1 mph - N/A   Overcast
3:41 AM 70.0 °F - 68.0 °F 93% 29.79 in 10.0 mi SW 10.4 mph - N/A   Overcast
3:47 AM 70.0 °F - 68.0 °F 93% 29.79 in 10.0 mi SSW 8.1 mph - N/A   Overcast
3:54 AM 70.0 °F - 68.0 °F 93% 29.79 in 10.0 mi SW 8.1 mph - N/A   Overcast
4:08 AM 70.0 °F - 68.0 °F 93% 29.80 in 10.0 mi SSW 5.8 mph - N/A   Overcast
4:15 AM 70.0 °F - 68.0 °F 93% 29.80 in 10.0 mi SW 6.9 mph - N/A   Overcast
4:25 AM 71.1 °F - 68.0 °F 90% 29.80 in 10.0 mi SW 8.1 mph - N/A   Overcast
4:54 AM 71.1 °F - 68.0 °F 90% 29.79 in 10.0 mi SW 6.9 mph - N/A   Overcast
5:10 AM 71.1 °F - 68.0 °F 90% 29.79 in 10.0 mi SW 6.9 mph - N/A   Mostly Cloudy
5:50 AM 69.8 °F - 66.2 °F 88% 29.80 in 10.0 mi SW 8.1 mph - N/A   Scattered Clouds
5:54 AM 70.0 °F - 66.9 °F 90% 29.80 in 10.0 mi WSW 6.9 mph - N/A   Scattered Clouds
6:08 AM 70.0 °F - 66.9 °F 90% 29.80 in 10.0 mi SW 6.9 mph - N/A   Mostly Cloudy
6:54 AM 71.1 °F - 68.0 °F 90% 29.80 in 10.0 mi WSW 8.1 mph - N/A   Mostly Cloudy
7:07 AM 71.1 °F - 66.9 °F 87% 29.80 in 10.0 mi SW 8.1 mph - N/A   Scattered Clouds
7:16 AM 71.1 °F - 66.9 °F 87% 29.81 in 10.0 mi WSW 11.5 mph - N/A   Mostly Cloudy
7:54 AM 72.0 °F - 66.0 °F 81% 29.81 in 10.0 mi WSW 11.5 mph 18.4 mph N/A   Mostly Cloudy
8:39 AM 73.9 °F - 66.0 °F 76% 29.81 in 10.0 mi WSW 12.7 mph - N/A   Scattered Clouds
8:54 AM 73.0 °F - 64.9 °F 76% 29.81 in 10.0 mi WSW 11.5 mph - N/A   Mostly Cloudy
9:04 AM 73.9 °F - 64.9 °F 73% 29.80 in 10.0 mi WSW 13.8 mph - N/A   Scattered Clouds
9:20 AM 75.0 °F - 64.9 °F 71% 29.80 in 10.0 mi WSW 11.5 mph - N/A   Mostly Cloudy
9:28 AM 75.0 °F - 64.9 °F 71% 29.80 in 10.0 mi WSW 11.5 mph 20.7 mph N/A   Scattered Clouds
9:54 AM 77.0 °F - 64.9 °F 66% 29.79 in 10.0 mi West 13.8 mph - N/A   Scattered Clouds
10:54 AM 80.1 °F 81.5 °F 63.0 °F 56% 29.78 in 10.0 mi West 16.1 mph 26.5 mph N/A   Partly Cloudy
11:54 AM 79.0 °F - 63.0 °F 58% 29.77 in 10.0 mi WSW 13.8 mph 20.7 mph N/A   Clear
12:54 PM 81.0 °F 81.9 °F 62.1 °F 52% 29.75 in 10.0 mi WSW 12.7 mph 18.4 mph N/A   Partly Cloudy
1:54 PM 84.0 °F 84.5 °F 62.1 °F 47% 29.74 in 10.0 mi West 13.8 mph 21.9 mph N/A   Scattered Clouds
2:54 PM 82.0 °F 82.7 °F 61.0 °F 49% 29.73 in 10.0 mi West 15.0 mph 25.3 mph N/A   Partly Cloudy
3:54 PM 82.9 °F 83.3 °F 61.0 °F 47% 29.72 in 10.0 mi West 12.7 mph - N/A   Scattered Clouds
4:54 PM 82.9 °F 84.0 °F 63.0 °F 51% 29.71 in 10.0 mi West 15.0 mph 24.2 mph N/A   Scattered Clouds
5:54 PM 81.0 °F 81.9 °F 62.1 °F 52% 29.71 in 10.0 mi West 16.1 mph 25.3 mph N/A   Mostly Cloudy
6:54 PM 79.0 °F - 63.0 °F 58% 29.71 in 10.0 mi WSW 10.4 mph - N/A   Mostly Cloudy
7:54 PM 78.1 °F - 64.0 °F 62% 29.73 in 10.0 mi West 9.2 mph - N/A   Scattered Clouds
8:54 PM 77.0 °F - 63.0 °F 62% 29.74 in 10.0 mi WSW 8.1 mph - N/A   Scattered Clouds
9:54 PM 75.0 °F - 64.0 °F 69% 29.76 in 10.0 mi West 8.1 mph - N/A   Partly Cloudy
10:54 PM 73.9 °F - 61.0 °F 64% 29.78 in 10.0 mi West 12.7 mph - N/A   Clear
11:54 PM 72.0 °F - 60.1 °F 66% 29.80 in 10.0 mi West 8.1 mph - N/A   Clear